ROMMA est une association bénévole à but non lucratif. Votre soutien est indispensable : ADHERER à ROMMA ou FAIRE un DON

Granges-lès-Beaumont - (26, Drôme)

Drôme des Collines (155 m)   Longitude: 04°58'E   Latitude: 45°03'N Station partenaire n°123
 

Détail journalier du     <<     >>

Température Precipitation Humidité Pression Vent Dir Rafale Dir. rafale Ensol.
Heure (°C) (mm) (%) (hPa) (km/h) (km/h) (min)
01:00 10.0088100700---0
02:00 9.708810061---5NNO0
03:00 9.60.289100603NNO0
04:00 9.4089100600---0
05:00 9.2089100500---0
06:00 9.1090100500---0
07:00 8.9090100500---0
08:00 9.3090100500---0
09:00 10.3090100500---0
10:00 11.4089100500---0
11:00 13.507910051OSO8OSO0
12:00 14.907310054E11E0
13:00 15.807010053E13E0
14:00 17.106010053E11E0
15:00 19.104810044S10S10
16:00 17.206010043SO19SO0
17:00 17.606010043SE10OSO0
18:00 17.406210044N10NE0
19:00 16.106810055NE11ENE0
20:00 15.207110056ENE19ENE0
21:00 14.107610065ENE16ENE0
22:00 13.408110063ENE10NNO0
23:00 12.70.28510072NNO8NNO0
minuit 12.30.88710071---6NNO0

Graphique du 18-05-2019

 

Serveur OMMA